Starlink 5875

operational
NORAD ID: 57221 Int'l Des: 2023-094 Owner: SPXS Country: US Constellation: starlink
LEOCIRCULAR

Starlink 5875について

説明を読み込み中...

リアルタイム位置

3D地球を読み込み中...

次回通過

高度履歴

Altitude vs Time

uPlot chart will show altitude changes over time

軌道要素

1 57221U 23094D 25305.57020075 -.00000044 00000-0 11795-4 0 9992
2 57221 43.0044 6.8273 0001357 261.2913 98.7775 15.02530402127847
Epoch: Nov 1, 2025 • Age: 11 hours

現在のステータス

高度 569.5 km
速度 7.58 km/s
衛星直下点 -38.04°S, 165.66°W
打ち上げ日 Jul 7, 2023
運用期間 2.3 years
タイプ internet

技術仕様

分類 Payload
質量 305.00 kg
乾燥質量 290.00 kg
総質量 305.00 kg
長さ 0.20 m
直径 2.80 m
スパン 9.00 m
形状 Box + pan
製造者 SPXS
バスタイプ Starlink
フェーズステータス In Orbit
所有者/国 SPXS/US

大規模コンステレーション

Loading constellations...